{"data":{"norad_id":63926,"intl_designator":"2025-098A","name":"STARLINK-34012","alt_names":[],"object_type":"PAYLOAD","status":"ACTIVE","operator":null,"country":"US","launch_date":"2025-05-13","launch_site_code":"AFWTR","launch_vehicle":null,"mission":null,"orbit_class":"UNKNOWN","rcs_meters":null,"size_class":null,"mass_kg":null,"dimensions":null,"purposes":["comms"],"wikipedia_slug":null,"has_3d_model":false,"image_url":null,"decayed_at":null,"tle_current":{"epoch":"2026-05-25T02:11:29.438016Z","epoch_age_seconds":57380,"freshness":"FRESH","line1":"1 63926U 25098A   26145.09131294  .00003043  00000+0  26268-3 0  9993","line2":"2 63926  70.0012  81.9477 0003121 266.6904  93.3898 14.98335855 58031","mean_motion":14.98335855,"eccentricity":0.0003121,"inclination_deg":70.0012,"raan_deg":81.9477,"arg_perigee_deg":266.6904,"mean_anomaly_deg":93.3898,"bstar":0.00026268,"rev_number":5803,"period_min":96.106623571389,"perigee_km":569.86863534849,"apogee_km":574.20693444922,"semimajor_km":6950.1747848989,"source":"CELESTRAK","updated_at":"2026-05-25T13:38:20.182020Z"}}}